Powrót do katalogu

STARLINK-34143

AktywnyŁącznośćVLEO
NORAD 63896·PAYLOAD·🇺🇸 United States

Wystrzelony May 10, 2025 z Cape Canaveral Space Force Station

Loading…

Następne Przeloty (najbliższe 24 godziny)

TLE

ŚwieżeSource: CelesTrak SupGP

Epoka: Sep 15, 2026, 02:15 UTC

1 63896C 25095G   26258.09423611 -.00063769  00000+0 -23102-2 0  2582
2 63896  43.0003 186.4735 0001330 276.8773 161.0441 15.27603652    10

Śledź STARLINK-34143 w czasie rzeczywistym z AllMySat

Download on the App Store